Location: Austin
(30.3000°N, 97.7500°W)
Time: 03:45:51
(UTC-05:00)

Cosmos 2266 Rocket - Pass Details

Date: 01 October 2024
Orbit: 934 x 1006 km, 82.9° (Epoch: 06 October)

Event Time Altitude Azimuth Distance (km) Brightness Sun altitude
Rises 20:43:37 0° 3° (N) 3,732 7.1 -19.8°
Reaches altitude 10° 20:46:19 10° 11° (N) 2,783 6.4 -20.4°
Maximum altitude 20:52:20 41° 80° (E) 1,412 4.4 -21.7°
Enters shadow 20:52:53 41° 93° (E) 1,430 4.3 -21.8°
